Location: Newark
(27.9675°N, 86.8869°E)
Time: 02:51:03
(UTC+00:00)

Vanguard 2 - All Passes

Search period start: 20 October 2019 00:00
Search period end: 30 October 2019 00:00
Orbit: 554 x 2937 km, 32.9° (Epoch: 18 October)

Date Brightness Start Highest point End Pass type
(mag) Time Alt. Az. Time Alt. Az. Time Alt. Az.
20 Oct - 10:31:17 10° SW 10:37:18 52° SSE 10:47:20 10° ENE daylight
20 Oct - 12:38:44 10° W 12:47:05 77° N 13:01:23 10° ENE visible
20 Oct - 14:47:47 10° WNW 14:59:16 74° N 15:16:35 10° E visible
20 Oct - 16:57:40 10° WNW 17:12:22 80° SSW 17:30:29 10° ESE visible
20 Oct - 19:09:32 10° W 19:24:53 43° SW 19:40:14 10° SSE visible
20 Oct - 21:30:04 10° WSW 21:35:57 12° SW 21:41:35 10° SSW visible
21 Oct - 08:44:37 10° SSE 08:47:34 15° SE 08:51:10 10° ESE daylight
21 Oct - 10:48:54 10° SW 10:55:08 70° SSE 11:05:48 10° ENE daylight
21 Oct - 12:56:50 10° W 13:05:27 71° N 13:19:59 10° ENE visible
21 Oct - 15:05:56 10° WNW 15:17:43 78° NNE 15:35:15 10° E visible
21 Oct - 17:15:53 10° WNW 17:30:36 70° SSW 17:48:27 10° SE visible
21 Oct - 19:28:33 10° W 19:42:47 33° SW 19:56:58 10° SSE visible
22 Oct - 09:00:52 10° SSW 09:05:00 24° SE 09:10:44 10° E daylight
22 Oct - 11:06:44 10° WSW 11:13:07 87° SSE 11:24:13 10° ENE daylight
22 Oct - 13:15:00 10° W 13:23:50 69° N 13:38:40 10° E visible
22 Oct - 15:24:02 10° WNW 15:36:06 85° NNE 15:53:49 10° ESE visible
22 Oct - 17:34:10 10° WNW 17:48:45 59° SSW 18:06:07 10° SE visible
22 Oct - 19:48:11 10° W 20:00:41 25° SW 20:13:07 10° S visible
23 Oct - 09:17:54 10° SSW 09:22:33 36° SE 09:29:32 10° E daylight
23 Oct - 11:24:42 10° WSW 11:31:15 79° NNW 11:42:39 10° ENE daylight
23 Oct - 13:33:07 10° WNW 13:42:15 70° N 13:57:24 10° E visible
23 Oct - 15:42:08 10° WNW 15:54:25 86° SSW 16:12:13 10° ESE visible
23 Oct - 17:52:37 10° WNW 18:06:51 48° SW 18:23:29 10° SSE visible
23 Oct - 20:08:55 10° WSW 20:18:38 17° SW 20:28:18 10° S visible
24 Oct - 09:35:20 10° SW 09:40:15 54° SSE 09:48:03 10° ENE daylight
24 Oct - 11:42:45 10° W 11:49:29 70° N 12:01:08 10° ENE visible
24 Oct - 13:51:13 10° WNW 14:00:37 73° N 14:16:08 10° E visible
24 Oct - 16:00:15 10° WNW 16:12:39 75° SSW 16:30:21 10° ESE visible
24 Oct - 18:11:20 10° W 18:24:55 38° SW 18:40:28 10° SSE night (unlit)
24 Oct - 20:33:10 10° SW 20:36:43 11° SW 20:40:15 10° SSW visible
25 Oct - 07:48:24 10° SSE 07:50:38 13° SE 07:53:10 10° ESE daylight
25 Oct - 09:53:02 10° WSW 09:58:07 75° SSE 10:06:24 10° ENE daylight
25 Oct - 12:00:52 10° W 12:07:47 66° N 12:19:43 10° E visible
25 Oct - 14:09:16 10° WNW 14:18:56 79° NNE 14:34:48 10° ESE visible
25 Oct - 16:18:24 10° WNW 16:30:52 64° SSW 16:48:14 10° SE visible
25 Oct - 18:30:29 10° W 18:42:59 29° SW 18:56:59 10° SSE night (unlit)
26 Oct - 08:04:44 10° SSW 08:08:11 23° SE 08:12:34 10° E daylight
26 Oct - 10:10:56 10° WSW 10:16:08 84° NNW 10:24:44 10° ENE daylight
26 Oct - 12:18:57 10° WNW 12:26:05 65° N 12:38:22 10° E visible
26 Oct - 14:27:18 10° WNW 14:37:12 89° NNE 14:53:19 10° ESE visible
26 Oct - 16:36:42 10° WNW 16:49:02 52° SSW 17:05:48 10° SE visible
26 Oct - 18:50:22 10° W 19:01:05 21° SW 19:12:47 10° S night (unlit)
27 Oct - 08:21:53 10° SW 08:25:50 37° SSE 08:31:13 10° E daylight
27 Oct - 10:28:56 10° W 10:34:15 70° N 10:43:04 10° ENE daylight
27 Oct - 12:37:01 10° WNW 12:44:23 67° N 12:57:04 10° E visible
27 Oct - 14:45:20 10° WNW 14:55:25 80° SSW 15:11:38 10° ESE visible
27 Oct - 16:55:11 10° W 17:07:12 42° SSW 17:23:01 10° SSE visible
27 Oct - 19:11:49 10° WSW 19:19:17 14° SW 19:27:10 10° SSW night (unlit)
28 Oct - 08:39:26 10° SW 08:43:37 58° SSE 08:49:35 10° ENE daylight
28 Oct - 10:47:01 10° W 10:52:27 62° N 11:01:29 10° ENE daylight
28 Oct - 12:55:01 10° WNW 13:02:38 73° NNE 13:15:44 10° E visible
28 Oct - 15:03:25 10° WNW 15:13:36 68° SSW 15:29:42 10° SE visible
28 Oct - 17:14:00 10° W 17:25:23 32° SW 17:39:48 10° SSE visible
29 Oct - 06:51:41 10° S 06:53:54 14° SE 06:56:15 10° ESE daylight
29 Oct - 08:57:13 10° WSW 09:01:31 85° SSE 09:07:49 10° ENE daylight
29 Oct - 11:05:05 10° W 11:10:41 59° N 11:20:00 10° E daylight
29 Oct - 13:13:02 10° WNW 13:20:50 82° NNE 13:34:19 10° ESE visible
29 Oct - 15:21:34 10° WNW 15:31:47 56° SSW 15:47:28 10° SE visible
29 Oct - 17:33:23 10° W 17:43:36 24° SW 17:55:59 10° S night (unlit)
